| time (UTC) | temp F | wind direction | speed knots | gust knots | rain 1hr in | rain 24hr in | rain mn in | humidity % | barometer mb |
| 20260505112126 | 48 | 70 | 0.0 | 0.0 | 0.00 | 0.55 | 0.55 | 90 | 1009.6 |
| 20260505111620 | 48 | 70 | 0.0 | 0.0 | 0.00 | 0.55 | 0.55 | 91 | 1009.5 |
| 20260505111116 | 48 | 70 | 0.0 | 0.0 | 0.00 | 0.55 | 0.55 | 91 | 1009.8 |
| 20260505110612 | 48 | 70 | 0.0 | 0.0 | 0.00 | 0.55 | 0.55 | 91 | 1009.9 |
| 20260505110109 | 48 | 69 | 0.0 | 0.0 | 0.00 | 0.55 | 0.55 | 91 | 1009.7 |
| 20260505102045 | 48 | 33 | 0.0 | 1.7 | 0.00 | 0.55 | 0.55 | 89 | 1009.8 |
| 20260505101543 | 48 | 70 | 0.0 | 1.7 | 0.00 | 0.55 | 0.55 | 90 | 1009.9 |
| 20260505101039 | 48 | 48 | 0.0 | 1.7 | 0.00 | 0.55 | 0.55 | 91 | 1009.8 |
| 20260505100536 | 48 | 43 | 0.9 | 0.9 | 0.00 | 0.55 | 0.55 | 91 | 1009.6 |
| 20260505100033 | 48 | 34 | 0.0 | 0.0 | 0.00 | 0.55 | 0.55 | 91 | 1010.0 |
| 20260505095529 | 47 | 26 | 0.0 | 0.9 | 0.00 | 0.55 | 0.55 | 92 | 1009.6 |
| 20260505095026 | 47 | 69 | 0.0 | 0.9 | 0.00 | 0.55 | 0.55 | 92 | 1009.6 |
| 20260505094522 | 47 | 75 | 0.9 | 1.7 | 0.00 | 0.55 | 0.55 | 92 | 1009.5 |
| 20260505094019 | 47 | 71 | 0.0 | 0.0 | 0.00 | 0.55 | 0.55 | 93 | 1009.4 |
| 20260505093515 | 47 | 76 | 0.0 | 1.7 | 0.00 | 0.55 | 0.55 | 92 | 1009.6 |
| 20260505093013 | 47 | 96 | 0.0 | 1.7 | 0.00 | 0.55 | 0.55 | 93 | 1009.3 |
| 20260505092510 | 47 | 123 | 0.9 | 1.7 | 0.00 | 0.55 | 0.55 | 94 | 1008.7 |
| 20260505092008 | 47 | 62 | 0.9 | 1.7 | 0.00 | 0.55 | 0.55 | 94 | 1008.7 |
| 20260505091505 | 47 | 25 | 1.7 | 1.7 | 0.00 | 0.55 | 0.55 | 94 | 1008.7 |
| 20260505091003 | 47 | 105 | 0.0 | 1.7 | 0.00 | 0.55 | 0.55 | 94 | 1008.6 |
| 20260505090501 | 47 | 91 | 1.7 | 2.6 | 0.00 | 0.55 | 0.55 | 94 | 1008.3 |
| 20260505085958 | 47 | 70 | 0.0 | 2.6 | 0.00 | 0.55 | 0.55 | 94 | 1008.1 |
| 20260505085456 | 47 | 29 | 1.7 | 6.1 | 0.00 | 0.55 | 0.55 | 94 | 1007.9 |
| 20260505084954 | 48 | 53 | 1.7 | 5.2 | 0.00 | 0.55 | 0.55 | 94 | 1007.8 |
| 20260505084452 | 47 | 306 | 5.2 | 6.1 | 0.12 | 0.55 | 0.55 | 94 | 1007.2 |
| 20260505083949 | 48 | 282 | 2.6 | 4.3 | 0.24 | 0.55 | 0.55 | 94 | 1005.1 |
| 20260505083446 | 48 | 57 | 0.9 | 5.2 | 0.24 | 0.53 | 0.53 | 94 | 1006.8 |
| 20260505082942 | 48 | 125 | 0.0 | 1.7 | 0.31 | 0.51 | 0.51 | 93 | 1008.4 |
| 20260505082438 | 48 | 26 | 0.9 | 2.6 | 0.31 | 0.49 | 0.49 | 93 | 1009.2 |
| 20260505081936 | 49 | 93 | 0.9 | 1.7 | 0.24 | 0.46 | 0.46 | 93 | 1009.3 |
| 20260505081432 | 49 | 85 | 0.0 | 1.7 | 0.24 | 0.44 | 0.44 | 92 | 1009.6 |
| 20260505080929 | 49 | 82 | 0.0 | 0.0 | 0.24 | 0.42 | 0.42 | 91 | 1009.9 |
| 20260505080425 | 50 | 81 | 0.0 | 0.9 | 0.31 | 0.40 | 0.40 | 90 | 1010.1 |
| 20260505075920 | 50 | 73 | 0.0 | 0.9 | 0.31 | 0.38 | 0.38 | 88 | 1010.1 |
| 20260505075418 | 51 | 61 | 0.0 | 0.0 | 0.19 | 0.34 | 0.34 | 84 | 1010.3 |
| 20260505074915 | 53 | 50 | 0.0 | 1.7 | 0.24 | 0.33 | 0.33 | 77 | 1010.1 |
| 20260505074412 | 54 | 353 | 2.6 | 4.3 | 0.12 | 0.31 | 0.31 | 70 | 1009.6 |
| 20260505073909 | 55 | 19 | 1.7 | 4.3 | 0.00 | 0.29 | 0.29 | 65 | 1009.5 |
| 20260505073407 | 56 | 295 | 5.2 | 6.1 | 0.00 | 0.29 | 0.29 | 60 | 1009.3 |
| 20260505072904 | 56 | 27 | 0.9 | 1.7 | 0.00 | 0.29 | 0.29 | 60 | 1008.7 |
| 20260505072400 | 56 | 24 | 0.9 | 2.6 | 0.00 | 0.29 | 0.29 | 59 | 1008.3 |
| 20260505071856 | 57 | 39 | 0.9 | 1.7 | 0.00 | 0.29 | 0.29 | 58 | 1007.8 |
| 20260505071353 | 57 | 100 | 0.0 | 2.6 | 0.00 | 0.29 | 0.29 | 61 | 1007.8 |
| 20260505070851 | 57 | 6 | 2.6 | 6.1 | 0.00 | 0.29 | 0.29 | 57 | 1007.8 |
| 20260505070347 | 57 | 26 | 0.0 | 1.7 | 0.00 | 0.29 | 0.29 | 58 | 1008.2 |
| 20260505065842 | 56 | 6 | 0.9 | 2.6 | 0.00 | 0.29 | 0.29 | 59 | 1008.2 |
| 20260505065339 | 55 | 238 | 2.6 | 5.2 | 0.00 | 0.29 | 0.29 | 62 | 1007.3 |
| 20260505064837 | 54 | 99 | 0.9 | 2.6 | 0.00 | 0.29 | 0.29 | 69 | 1006.8 |
| 20260505064333 | 54 | 22 | 0.0 | 2.6 | 0.00 | 0.29 | 0.29 | 74 | 1006.9 |
| 20260505063832 | 54 | 41 | 0.0 | 5.2 | 0.00 | 0.29 | 0.29 | 73 | 1006.8 |
| 20260505063327 | 54 | 30 | 4.3 | 6.1 | 0.00 | 0.29 | 0.29 | 76 | 1007.0 |
| 20260505062824 | 53 | 48 | 1.7 | 4.3 | 0.07 | 0.29 | 0.29 | 81 | 1006.7 |
| 20260505062322 | 53 | 40 | 0.9 | 7.8 | 0.07 | 0.29 | 0.29 | 87 | 1006.7 |
| 20260505061818 | 54 | 67 | 0.9 | 4.3 | 0.00 | 0.28 | 0.28 | 91 | 1006.4 |
| 20260505061316 | 54 | 39 | 0.0 | 0.0 | 0.00 | 0.28 | 0.28 | 93 | 1006.3 |
| 20260505060813 | 54 | 37 | 0.0 | 0.9 | 0.00 | 0.28 | 0.28 | 92 | 1006.3 |
| 20260505060310 | 55 | 83 | 0.0 | 0.9 | 0.00 | 0.28 | 0.28 | 92 | 1006.0 |
| 20260505055806 | 55 | 55 | 0.0 | 1.7 | 0.00 | 0.28 | 0.28 | 92 | 1005.8 |
| 20260505055303 | 55 | 19 | 0.0 | 0.9 | 0.00 | 0.28 | 0.28 | 92 | 1005.6 |
| 20260505054800 | 56 | 281 | 0.0 | 0.9 | 0.17 | 0.28 | 0.28 | 91 | 1005.5 |
| 20260505054257 | 56 | 281 | 0.0 | 0.9 | 0.47 | 0.28 | 0.28 | 90 | 1005.8 |
| 20260505053755 | 56 | 277 | 0.0 | 1.7 | 0.50 | 0.25 | 0.25 | 90 | 1005.8 |
| 20260505053252 | 58 | 121 | 0.9 | 0.9 | 0.47 | 0.20 | 0.20 | 90 | 1005.7 |
| 20260505052749 | 59 | 97 | 0.9 | 1.7 | 0.66 | 0.16 | 0.16 | 86 | 1006.5 |
| 20260505052246 | 60 | 69 | 1.7 | 2.6 | 0.73 | 0.12 | 0.12 | 81 | 1005.6 |
| 20260505051743 | 64 | 74 | 0.0 | 0.9 | 0.24 | 0.04 | 0.04 | 71 | 1005.5 |
| 20260505051241 | 66 | 0 | 1.7 | 2.6 | 0.00 | 0.00 | 0.00 | 59 | 1005.2 |
| 20260505050738 | 69 | 55 | 0.0 | 2.6 | 0.00 | 0.00 | 0.00 | 51 | 1004.8 |
| 20260505050237 | 70 | 32 | 2.6 | 2.6 | 0.00 | 0.00 | 0.00 | 50 | 1004.6 |
| 20260505041706 | 71 | 129 | 0.0 | 1.7 | 0.00 | 0.00 | 0.00 | 71 | 1003.6 |
| 20260505041203 | 71 | 142 | 0.9 | 2.6 | 0.00 | 0.00 | 0.00 | 71 | 1003.5 |
| 20260505040701 | 72 | 144 | 0.9 | 2.6 | 0.00 | 0.00 | 0.00 | 71 | 1003.7 |
| 20260505040158 | 71 | 160 | 3.5 | 4.3 | 0.00 | 0.00 | 0.00 | 71 | 1003.7 |
| 20260505035654 | 71 | 125 | 0.0 | 0.9 | 0.00 | 0.00 | 0.00 | 71 | 1003.8 |
| 20260505035150 | 71 | 134 | 0.9 | 1.7 | 0.00 | 0.00 | 0.00 | 71 | 1003.8 |
| 20260505034647 | 71 | 127 | 0.9 | 0.9 | 0.00 | 0.00 | 0.00 | 71 | 1003.7 |
| 20260505034145 | 71 | 125 | 0.9 | 0.9 | 0.00 | 0.00 | 0.00 | 72 | 1003.8 |
| 20260505033640 | 71 | 125 | 0.9 | 1.7 | 0.00 | 0.00 | 0.00 | 71 | 1004.0 |
| 20260505033139 | 71 | 125 | 0.0 | 1.7 | 0.00 | 0.00 | 0.00 | 72 | 1003.6 |
| 20260505032637 | 70 | 124 | 0.0 | 0.0 | 0.00 | 0.00 | 0.00 | 72 | 1003.7 |
| 20260505032133 | 70 | 124 | 0.0 | 0.0 | 0.00 | 0.00 | 0.00 | 73 | 1003.8 |
| 20260505031630 | 70 | 125 | 0.9 | 0.9 | 0.00 | 0.00 | 0.00 | 74 | 1003.5 |
| 20260505031126 | 70 | 125 | 0.0 | 0.0 | 0.00 | 0.00 | 0.00 | 73 | 1003.6 |
| 20260505030624 | 70 | 125 | 0.0 | 0.0 | 0.00 | 0.00 | 0.00 | 73 | 1003.7 |
| 20260505030119 | 70 | 125 | 0.0 | 0.0 | 0.00 | 0.00 | 0.00 | 73 | 1003.6 |
| 20260505025615 | 70 | 125 | 0.0 | 0.9 | 0.00 | 0.00 | 0.00 | 73 | 1003.6 |
| 20260505025114 | 68 | 115 | 0.0 | 0.0 | 0.00 | 0.00 | 0.00 | 76 | 1003.3 |
| 20260505024611 | 68 | 115 | 0.0 | 0.0 | 0.00 | 0.00 | 0.00 | 76 | 1003.5 |
| 20260505024108 | 69 | 115 | 0.0 | 0.0 | 0.00 | 0.00 | 0.00 | 76 | 1003.3 |
| 20260505023606 | 69 | 115 | 0.0 | 0.0 | 0.00 | 0.00 | 0.00 | 75 | 1003.0 |
| 20260505023103 | 69 | 115 | 0.0 | 0.0 | 0.00 | 0.00 | 0.00 | 75 | 1003.0 |
| 20260505022600 | 69 | 115 | 0.0 | 0.0 | 0.00 | 0.00 | 0.00 | 75 | 1002.7 |
| 20260505022057 | 69 | 115 | 0.0 | 0.0 | 0.00 | 0.00 | 0.00 | 74 | 1002.9 |
| 20260505021554 | 70 | 115 | 0.0 | 0.0 | 0.00 | 0.00 | 0.00 | 74 | 1002.7 |
| 20260505021051 | 70 | 115 | 0.0 | 0.0 | 0.00 | 0.00 | 0.00 | 73 | 1002.9 |
| 20260505020550 | 70 | 117 | 0.0 | 0.0 | 0.00 | 0.00 | 0.00 | 72 | 1002.6 |
| 20260505020048 | 71 | 118 | 0.0 | 0.0 | 0.00 | 0.00 | 0.00 | 70 | 1002.8 |
| 20260505015545 | 71 | 121 | 0.0 | 0.0 | 0.00 | 0.00 | 0.00 | 70 | 1002.4 |
| 20260505015041 | 71 | 125 | 0.0 | 0.0 | 0.00 | 0.00 | 0.00 | 69 | 1002.4 |
| 20260505014538 | 72 | 125 | 0.0 | 0.0 | 0.00 | 0.00 | 0.00 | 67 | 1002.5 |
| 20260505014035 | 72 | 125 | 0.0 | 0.0 | 0.00 | 0.00 | 0.00 | 66 | 1002.2 |
| 20260505013532 | 73 | 125 | 0.0 | 0.0 | 0.00 | 0.00 | 0.00 | 65 | 1002.1 |
| 20260505013030 | 73 | 125 | 0.0 | 0.0 | 0.00 | 0.00 | 0.00 | 65 | 1002.1 |
| 20260505012528 | 73 | 125 | 0.0 | 0.0 | 0.00 | 0.00 | 0.00 | 65 | 1001.9 |
| 20260505012025 | 73 | 125 | 0.0 | 0.0 | 0.00 | 0.00 | 0.00 | 64 | 1002.0 |
| 20260505011520 | 74 | 125 | 0.0 | 0.0 | 0.00 | 0.00 | 0.00 | 63 | 1002.1 |
| 20260505011017 | 75 | 125 | 0.0 | 0.0 | 0.00 | 0.00 | 0.00 | 61 | 1002.0 |
| 20260505010512 | 75 | 125 | 0.0 | 0.0 | 0.00 | 0.00 | 0.00 | 60 | 1002.1 |
| 20260505010010 | 76 | 125 | 0.0 | 0.0 | 0.00 | 0.00 | 0.00 | 59 | 1001.9 |
| 20260505005506 | 76 | 126 | 0.0 | 0.0 | 0.00 | 0.00 | 0.00 | 58 | 1001.9 |
| 20260505005004 | 76 | 126 | 0.0 | 0.0 | 0.00 | 0.00 | 0.00 | 57 | 1001.8 |
| 20260505004501 | 77 | 126 | 0.0 | 0.0 | 0.00 | 0.00 | 0.00 | 56 | 1001.7 |
| 20260505003957 | 78 | 126 | 0.0 | 0.0 | 0.00 | 0.00 | 0.00 | 55 | 1001.7 |
| 20260505003455 | 79 | 126 | 0.0 | 0.0 | 0.00 | 0.00 | 0.00 | 53 | 1001.6 |
| 20260505002950 | 79 | 126 | 0.0 | 0.0 | 0.00 | 0.00 | 0.00 | 52 | 1001.5 |
| 20260505002446 | 80 | 126 | 0.0 | 0.0 | 0.00 | 0.00 | 0.00 | 51 | 1001.5 |
| 20260505001945 | 80 | 127 | 0.0 | 0.0 | 0.00 | 0.00 | 0.00 | 50 | 1001.5 |
| 20260505001442 | 79 | 127 | 0.0 | 0.0 | 0.00 | 0.00 | 0.00 | 50 | 1001.4 |
| 20260505000939 | 79 | 127 | 0.0 | 0.0 | 0.00 | 0.00 | 0.00 | 50 | 1001.5 |
| 20260505000437 | 80 | 136 | 0.9 | 0.9 | 0.00 | 0.00 | 0.00 | 49 | 1001.5 |
| 20260504235934 | 80 | 132 | 0.9 | 1.7 | 0.00 | 0.00 | 0.00 | 48 | 1001.4 |
| 20260504235431 | 80 | 135 | 0.0 | 1.7 | 0.00 | 0.00 | 0.00 | 48 | 1001.5 |
| 20260504234927 | 80 | 148 | 1.7 | 4.3 | 0.00 | 0.00 | 0.00 | 47 | 1001.4 |
| 20260504234425 | 80 | 144 | 0.9 | 5.2 | 0.00 | 0.00 | 0.00 | 47 | 1001.4 |
| 20260504233921 | 80 | 139 | 1.7 | 2.6 | 0.00 | 0.00 | 0.00 | 47 | 1001.6 |
| 20260504233417 | 80 | 128 | 0.9 | 1.7 | 0.00 | 0.00 | 0.00 | 48 | 1001.5 |
| 20260504232914 | 81 | 139 | 1.7 | 2.6 | 0.00 | 0.00 | 0.00 | 46 | 1001.4 |
| 20260504232411 | 81 | 133 | 0.0 | 1.7 | 0.00 | 0.00 | 0.00 | 46 | 1001.4 |
| 20260504231908 | 81 | 153 | 2.6 | 7.0 | 0.00 | 0.00 | 0.00 | 45 | 1001.5 |
| 20260504231404 | 81 | 168 | 2.6 | 5.2 | 0.00 | 0.00 | 0.00 | 46 | 1001.6 |
| 20260504230901 | 82 | 144 | 2.6 | 4.3 | 0.00 | 0.00 | 0.00 | 46 | 1001.6 |
| 20260504230358 | 81 | 15 | 0.9 | 2.6 | 0.00 | 0.00 | 0.00 | 45 | 1001.4 |
| 20260504225857 | 81 | 263 | 2.6 | 4.3 | 0.00 | 0.00 | 0.00 | 44 | 1001.6 |
| 20260504225353 | 81 | 184 | 2.6 | 2.6 | 0.00 | 0.00 | 0.00 | 44 | 1001.6 |
| 20260504224851 | 81 | 147 | 2.6 | 4.3 | 0.00 | 0.00 | 0.00 | 44 | 1001.6 |
| 20260504224347 | 80 | 147 | 0.9 | 1.7 | 0.00 | 0.00 | 0.00 | 45 | 1001.7 |
| 20260504223844 | 80 | 147 | 0.9 | 4.3 | 0.00 | 0.00 | 0.00 | 45 | 1001.5 |
| 20260504223339 | 80 | 135 | 0.9 | 4.3 | 0.00 | 0.00 | 0.00 | 45 | 1001.7 |
| 20260504222836 | 80 | 149 | 1.7 | 2.6 | 0.00 | 0.00 | 0.00 | 46 | 1001.7 |
| 20260504222333 | 80 | 139 | 0.9 | 2.6 | 0.00 | 0.00 | 0.00 | 45 | 1001.8 |
| 20260504221832 | 80 | 177 | 2.6 | 4.3 | 0.00 | 0.00 | 0.00 | 45 | 1001.9 |
| 20260504221328 | 80 | 151 | 1.7 | 1.7 | 0.00 | 0.00 | 0.00 | 46 | 1001.8 |
| 20260504220825 | 80 | 159 | 2.6 | 4.3 | 0.00 | 0.00 | 0.00 | 45 | 1001.6 |
| 20260504220322 | 80 | 130 | 0.9 | 4.3 | 0.00 | 0.00 | 0.00 | 44 | 1002.0 |
| 20260504215819 | 80 | 243 | 2.6 | 2.6 | 0.00 | 0.00 | 0.00 | 44 | 1001.8 |
| 20260504215315 | 80 | 180 | 2.6 | 7.0 | 0.00 | 0.00 | 0.00 | 45 | 1001.8 |
| 20260504214811 | 81 | 145 | 1.7 | 6.1 | 0.00 | 0.00 | 0.00 | 43 | 1001.9 |
| 20260504214309 | 81 | 289 | 3.5 | 5.2 | 0.00 | 0.00 | 0.00 | 42 | 1001.8 |
| 20260504213805 | 81 | 191 | 2.6 | 7.0 | 0.00 | 0.00 | 0.00 | 41 | 1002.0 |
| 20260504213301 | 81 | 123 | 0.9 | 9.6 | 0.00 | 0.00 | 0.00 | 40 | 1001.9 |
| 20260504212758 | 82 | 282 | 1.7 | 8.7 | 0.00 | 0.00 | 0.00 | 42 | 1001.8 |
| 20260504212248 | 82 | 197 | 4.3 | 6.1 | 0.00 | 0.00 | 0.00 | 42 | 1001.9 |
| 20260504211746 | 82 | 151 | 4.3 | 6.1 | 0.00 | 0.00 | 0.00 | 44 | 1001.9 |
| 20260504211242 | 82 | 132 | 1.7 | 6.1 | 0.00 | 0.00 | 0.00 | 42 | 1001.9 |
| 20260504210740 | 82 | 125 | 4.3 | 7.0 | 0.00 | 0.00 | 0.00 | 43 | 1001.9 |
| 20260504210237 | 82 | 241 | 2.6 | 5.2 | 0.00 | 0.00 | 0.00 | 42 | 1002.0 |
| 20260504205734 | 82 | 275 | 4.3 | 7.0 | 0.00 | 0.00 | 0.00 | 41 | 1002.0 |
| 20260504205232 | 82 | 215 | 2.6 | 6.1 | 0.00 | 0.00 | 0.00 | 43 | 1002.0 |
| 20260504204730 | 82 | 149 | 1.7 | 5.2 | 0.00 | 0.00 | 0.00 | 44 | 1002.0 |
| 20260504204228 | 82 | 164 | 6.1 | 7.0 | 0.00 | 0.00 | 0.00 | 44 | 1002.0 |
| 20260504203727 | 82 | 139 | 0.9 | 5.2 | 0.00 | 0.00 | 0.00 | 44 | 1002.3 |
| 20260504203224 | 82 | 208 | 3.5 | 6.1 | 0.00 | 0.00 | 0.00 | 43 | 1002.2 |
| 20260504202724 | 82 | 191 | 2.6 | 5.2 | 0.00 | 0.00 | 0.00 | 42 | 1002.4 |
| 20260504202221 | 82 | 211 | 2.6 | 6.1 | 0.00 | 0.00 | 0.00 | 43 | 1002.0 |
| 20260504201718 | 82 | 153 | 2.6 | 8.7 | 0.00 | 0.00 | 0.00 | 42 | 1002.4 |
| 20260504201215 | 81 | 195 | 3.5 | 6.1 | 0.00 | 0.00 | 0.00 | 43 | 1002.4 |
| 20260504200713 | 80 | 123 | 0.9 | 5.2 | 0.00 | 0.00 | 0.00 | 44 | 1002.4 |
| 20260504200209 | 81 | 171 | 2.6 | 8.7 | 0.00 | 0.00 | 0.00 | 43 | 1002.6 |
| 20260504195705 | 81 | 158 | 4.3 | 7.0 | 0.00 | 0.00 | 0.00 | 43 | 1002.4 |
| 20260504195201 | 81 | 120 | 0.9 | 5.2 | 0.00 | 0.00 | 0.00 | 43 | 1002.3 |
| 20260504194659 | 81 | 212 | 3.5 | 8.7 | 0.00 | 0.00 | 0.00 | 43 | 1002.4 |
| 20260504194154 | 81 | 172 | 1.7 | 6.1 | 0.00 | 0.00 | 0.00 | 45 | 1002.4 |
| 20260504193651 | 81 | 137 | 2.6 | 5.2 | 0.00 | 0.00 | 0.00 | 44 | 1002.3 |
| 20260504193149 | 81 | 243 | 2.6 | 9.6 | 0.00 | 0.00 | 0.00 | 43 | 1002.4 |
| 20260504192647 | 80 | 147 | 3.5 | 4.3 | 0.00 | 0.00 | 0.00 | 44 | 1002.2 |
| 20260504192145 | 79 | 147 | 2.6 | 7.0 | 0.00 | 0.00 | 0.00 | 44 | 1002.6 |
| 20260504191643 | 79 | 263 | 3.5 | 9.6 | 0.00 | 0.00 | 0.00 | 43 | 1002.7 |
| 20260504191138 | 79 | 182 | 1.7 | 8.7 | 0.00 | 0.00 | 0.00 | 43 | 1002.7 |
| 20260504190635 | 78 | 151 | 2.6 | 7.8 | 0.00 | 0.00 | 0.00 | 44 | 1002.7 |
| 20260504190132 | 79 | 305 | 7.0 | 9.6 | 0.00 | 0.00 | 0.00 | 43 | 1002.6 |
| 20260504185628 | 79 | 183 | 3.5 | 7.0 | 0.00 | 0.00 | 0.00 | 43 | 1002.7 |
| 20260504185125 | 78 | 156 | 1.7 | 7.0 | 0.00 | 0.00 | 0.00 | 43 | 1002.8 |
| 20260504184621 | 78 | 146 | 4.3 | 7.8 | 0.00 | 0.00 | 0.00 | 44 | 1002.7 |
| 20260504184116 | 77 | 123 | 2.6 | 4.3 | 0.00 | 0.00 | 0.00 | 43 | 1002.6 |
| 20260504183613 | 78 | 189 | 3.5 | 6.1 | 0.00 | 0.00 | 0.00 | 44 | 1002.9 |
| 20260504183111 | 78 | 176 | 2.6 | 8.7 | 0.00 | 0.00 | 0.00 | 44 | 1002.7 |
| 20260504182608 | 78 | 173 | 6.1 | 11.3 | 0.00 | 0.00 | 0.00 | 45 | 1002.9 |
| 20260504182105 | 77 | 179 | 4.3 | 6.1 | 0.00 | 0.00 | 0.00 | 46 | 1002.7 |
| 20260504181603 | 77 | 194 | 2.6 | 8.7 | 0.00 | 0.00 | 0.00 | 44 | 1002.9 |
| 20260504181100 | 77 | 164 | 5.2 | 7.0 | 0.00 | 0.00 | 0.00 | 43 | 1003.0 |
| 20260504180559 | 77 | 153 | 1.7 | 7.8 | 0.00 | 0.00 | 0.00 | 45 | 1003.0 |
| 20260504180058 | 77 | 133 | 1.7 | 5.2 | 0.00 | 0.00 | 0.00 | 45 | 1002.8 |
| 20260504175555 | 77 | 180 | 1.7 | 8.7 | 0.00 | 0.00 | 0.00 | 45 | 1002.9 |
| 20260504175051 | 77 | 178 | 2.6 | 7.0 | 0.00 | 0.00 | 0.00 | 45 | 1003.0 |
| 20260504174549 | 76 | 230 | 2.6 | 4.3 | 0.00 | 0.00 | 0.00 | 45 | 1003.1 |
| 20260504174046 | 76 | 148 | 4.3 | 12.2 | 0.00 | 0.00 | 0.00 | 46 | 1003.2 |
| 20260504173542 | 76 | 156 | 2.6 | 5.2 | 0.00 | 0.00 | 0.00 | 46 | 1003.3 |
| 20260504173040 | 75 | 168 | 1.7 | 5.2 | 0.00 | 0.00 | 0.00 | 45 | 1003.5 |
| 20260504172536 | 75 | 283 | 4.3 | 7.0 | 0.00 | 0.00 | 0.00 | 46 | 1003.3 |
| 20260504172033 | 75 | 163 | 2.6 | 5.2 | 0.00 | 0.00 | 0.00 | 47 | 1003.3 |
| 20260504171530 | 76 | 209 | 2.6 | 4.3 | 0.00 | 0.00 | 0.00 | 45 | 1003.1 |
| 20260504171027 | 76 | 211 | 2.6 | 4.3 | 0.00 | 0.00 | 0.00 | 48 | 1003.2 |
| 20260504170522 | 76 | 121 | 2.6 | 5.2 | 0.00 | 0.00 | 0.00 | 47 | 1003.3 |
| 20260504160443 | 72 | 185 | 4.3 | 5.2 | 0.00 | 0.00 | 0.00 | 52 | 1003.6 |
| 20260504150906 | 70 | 112 | 3.5 | 9.6 | 0.00 | 0.00 | 0.00 | 55 | 1004.1 |
| 20260504150403 | 70 | 158 | 2.6 | 4.3 | 0.00 | 0.00 | 0.00 | 55 | 1004.1 |
| 20260504141333 | 66 | 145 | 2.6 | 5.2 | 0.00 | 0.00 | 0.00 | 60 | 1004.5 |
| 20260504140830 | 66 | 140 | 1.7 | 1.7 | 0.00 | 0.00 | 0.00 | 61 | 1004.2 |
| 20260504140325 | 65 | 142 | 0.9 | 1.7 | 0.00 | 0.00 | 0.00 | 61 | 1004.1 |
| 20260504130754 | 63 | 133 | 0.9 | 1.7 | 0.00 | 0.00 | 0.00 | 67 | 1004.3 |
| 20260504130250 | 62 | 128 | 0.9 | 1.7 | 0.00 | 0.00 | 0.00 | 67 | 1004.3 |
| 20260504120214 | 59 | 100 | 0.0 | 0.0 | 0.00 | 0.00 | 0.00 | 75 | 1004.4 |